Hourly Data Report for May 08, 2012

All times are specified in Local Standard Time (LST). Add 1 hour to adjust for Daylight Saving Time where and when it is observed.

HAMILTON A
ONTARIO

43°10'25.000" N
79°56'06.000" W
237.70 m
6153193
71263
YHM

Download Data

Hourly Data (May 2012)
Hourly Data Report for May 8, 2012
Temp Definition
°C
Dew Point Temp Definition
°C
Rel Hum Definition
%
Wind Dir Definition
10's deg

Wind Spd Definition
km/h
Visibility Definition
km
Stn Press Definition
kPa
Hmdx Definition


Wind Chill Definition


Weather Definition


TIME
00:00 10.9 9.7 92 4 9 8.1 97.98     Rain Showers,Fog
01:00 11.1 10.5 96 2 8 8.1 97.92     Rain Showers,Fog
02:00 11.4 11.1 98 34 4 4.0 97.90     Rain Showers,Fog
03:00 11.4 11.3 99 22 5 2.8 97.90     Rain Showers,Fog
04:00 11.5 11.5 100 25 6 2.8 97.88     Rain Showers,Fog
05:00 11.8 11.8 100 24 9 2.0 97.90     Rain Showers,Fog
06:00 12.2 12.2 100 23 6 1.2 97.90     Rain Showers,Fog
07:00 12.9 12.9 100 25 9 2.4 97.89     Rain Showers,Fog
08:00 13.3 13.2 99 25 13 2.8 97.93     Fog
09:00 13.9 13.3 96 26 15 3.2 97.93     Fog
10:00 15.6 13.3 86 25 18 9.7 97.94     Fog
11:00 17.1 12.9 76 26 19 10.0 97.95     LegendNANA
12:00 18.5 12.1 66 28 17 10.0 97.89     LegendNANA
13:00 20.3 13.1 63 29 19 10.0 97.92     Mostly Cloudy
14:00 19.0 13.5 70 28 18 10.0 97.93     LegendNANA
15:00 18.9 12.7 67 25 17 10.0 97.94     LegendNANA
16:00 17.8 12.8 72 32 11 10.0 97.94     Mostly Cloudy
17:00 17.4 11.9 70 31 15 10.0 97.99     LegendNANA
18:00 16.7 12.1 74 27 13 10.0 98.01     LegendNANA
19:00 16.0 11.0 72 29 10 10.0 98.03     Mainly Clear
20:00 13.5 10.7 83 21 8 10.0 98.04     LegendNANA
21:00 13.0 10.7 86 20 9 10.0 98.07     LegendNANA
22:00 11.7 10.1 90 21 10 10.0 98.05     Mainly Clear
23:00 11.4 10.0 91 22 10 10.0 98.03     LegendNANA

Notes on Data Quality.

Legend

  • E = Estimated
  • M = Missing
  • NA = Not Available
Date modified: